FW0158 Weather Reports


time (UTC)temp
C
wind
direction
speed
KPH
gust
KPH
rain 1hr
cm
rain 24hr
cm
rain mn
cm
humidity
%
barometer
mb
20260504185833 25 237 6.4 20.9 0.00 0.00 0.00 40 1013.5
20260504185152 26 247 9.7 20.9 0.00 0.00 0.00 36 1013.5
20260504183617 25 239 12.9 22.5 0.00 0.00 0.00 36 1013.5
20260504182513 25 241 6.4 25.7 0.00 0.00 0.00 39 1013.5
20260504182045 26 260 9.7 25.7 0.00 0.00 0.00 37 1013.8
20260504181406 25 256 11.3 22.5 0.00 0.00 0.00 40 1013.5
20260504174512 24 283 9.7 25.7 0.00 0.00 0.00 41 1013.8
20260504173153 24 230 14.5 25.7 0.00 0.00 0.00 38 1014.2
20260504172939 25 285 12.9 20.9 0.00 0.00 0.00 40 1014.2
20260504171832 24 268 9.7 25.7 0.00 0.00 0.00 40 1014.5
20260504170722 24 290 14.5 24.1 0.00 0.00 0.00 41 1014.5
20260504160257 22 283 12.9 22.5 0.00 0.00 0.00 46 1015.6
20260504150513 21 299 11.3 19.3 0.00 0.00 0.00 50 1015.6
20260504141152 19 267 9.7 17.7 0.00 0.00 0.00 54 1015.9
20260504140937 19 292 11.3 17.7 0.00 0.00 0.00 54 1015.9
20260504130512 15 263 0.0 1.6 0.00 0.00 0.00 70 1016.2
20260504110512 6 358 0.0 3.2 0.00 0.00 0.00 97 1015.6
20260504100512 7 4 0.0 1.6 0.00 0.00 0.00 96 1015.2
20260504081616 7 69 1.6 1.6 0.00 0.00 0.00 94 1015.2
20260504080723 7 134 0.0 3.2 0.00 0.00 0.00 95 1015.2
20260504050725 9 67 0.0 1.6 0.00 0.00 0.00 87 1016.6
20260504045151 9 355 1.6 3.2 0.00 0.00 0.00 85 1016.6
20260504044512 9 297 0.0 1.6 0.00 0.00 0.00 85 1016.9
20260504044043 10 21 1.6 1.6 0.00 0.00 0.00 84 1016.9
20260504043151 10 31 1.6 1.6 0.00 0.00 0.00 83 1016.9
20260504041831 10 161 1.6 3.2 0.00 0.00 0.00 86 1016.9
20260504041613 10 343 1.6 1.6 0.00 0.00 0.00 83 1016.9
20260504040934 10 360 1.6 1.6 0.00 0.00 0.00 81 1016.9
20260504040255 10 100 0.0 1.6 0.00 0.00 0.00 79 1016.9
20260504035402 10 70 0.0 3.2 0.00 0.00 0.00 79 1016.9
20260504033832 11 15 1.6 3.2 0.00 0.00 0.00 73 1016.9
20260504033404 12 293 1.6 3.2 0.00 0.00 0.00 69 1016.9
20260504031831 12 267 1.6 1.6 0.00 0.00 0.00 65 1016.9
20260504031151 12 240 1.6 3.2 0.00 0.00 0.00 64 1016.9
20260504030043 13 206 1.6 3.2 0.00 0.00 0.00 66 1016.9
20260504025151 13 182 1.6 3.2 0.00 0.00 0.00 64 1017.3
20260504024511 13 168 1.6 3.2 0.00 0.00 0.00 63 1016.9
20260504023151 13 206 1.6 3.2 0.00 0.00 0.00 63 1016.9
20260504022511 13 203 1.6 3.2 0.00 0.00 0.00 63 1017.3
20260504022254 13 206 1.6 3.2 0.00 0.00 0.00 62 1017.3
20260504021151 13 55 0.0 1.6 0.00 0.00 0.00 63 1017.3
20260504020043 15 335 0.0 1.6 0.00 0.00 0.00 56 1016.9
20260504015830 15 206 0.0 1.6 0.00 0.00 0.00 58 1016.9
20260504013829 16 210 1.6 3.2 0.00 0.00 0.00 53 1016.9
20260504012510 16 203 1.6 3.2 0.00 0.00 0.00 49 1016.6
20260504011829 16 196 1.6 3.2 0.00 0.00 0.00 48 1016.6
20260504010723 17 197 1.6 3.2 0.00 0.00 0.00 47 1016.6
20260504005829 17 202 1.6 4.8 0.00 0.00 0.00 46 1016.6
20260504005359 17 215 1.6 4.8 0.00 0.00 0.00 43 1016.6
20260504004509 17 218 1.6 6.4 0.00 0.00 0.00 42 1016.6
20260504004254 18 215 3.2 6.4 0.00 0.00 0.00 41 1016.6
20260504003149 18 230 3.2 6.4 0.00 0.00 0.00 41 1016.2
20260504002722 18 219 3.2 6.4 0.00 0.00 0.00 39 1016.2
20260504000932 20 246 4.8 8.0 0.00 0.00 0.00 37 1016.6
20260504000040 20 233 4.8 11.3 0.00 0.00 0.00 36 1016.6
20260503235613 20 215 4.8 11.3 0.00 0.00 0.00 36 1016.6
20260503234934 20 244 4.8 11.3 0.00 0.00 0.00 35 1016.6
20260503232510 21 277 6.4 9.7 0.00 0.00 0.00 34 1016.9
20260503232257 20 268 4.8 11.3 0.00 0.00 0.00 32 1016.9
20260503231612 20 210 3.2 16.1 0.00 0.00 0.00 32 1016.9
20260503230510 21 299 9.7 16.1 0.00 0.00 0.00 32 1016.9
20260503230040 21 246 6.4 16.1 0.00 0.00 0.00 31 1016.9
20260503224721 21 304 12.9 16.1 0.00 0.00 0.00 30 1016.9
20260503223616 21 314 8.0 12.9 0.00 0.00 0.00 28 1017.3
20260503222510 21 336 8.0 16.1 0.00 0.00 0.00 29 1017.3
20260503221830 21 306 9.7 16.1 0.00 0.00 0.00 28 1017.3
20260503221149 21 298 4.8 11.3 0.00 0.00 0.00 27 1017.3
20260503220509 21 259 6.4 12.9 0.00 0.00 0.00 29 1017.6
20260503220041 21 273 4.8 14.5 0.00 0.00 0.00 29 1017.6
20260503215402 21 259 4.8 16.1 0.00 0.00 0.00 28 1017.6
20260503214508 21 297 9.7 17.7 0.00 0.00 0.00 27 1017.6
20260503213145 21 304 14.5 24.1 0.00 0.00 0.00 29 1018.0
20260503211828 21 328 8.0 19.3 0.00 0.00 0.00 27 1018.0
20260503210934 20 260 9.7 17.7 0.00 0.00 0.00 28 1018.0
20260503205148 20 317 12.9 22.5 0.00 0.00 0.00 28 1018.3
20260503204931 20 307 14.5 22.5 0.00 0.00 0.00 28 1018.3
20260503203612 20 308 8.0 19.3 0.00 0.00 0.00 29 1018.7
20260503202720 20 325 11.3 19.3 0.00 0.00 0.00 30 1018.7
20260503201148 20 284 9.7 24.1 0.00 0.00 0.00 30 1019.0
20260503195829 20 274 6.4 14.5 0.00 0.00 0.00 29 1019.3
20260503195616 20 308 8.0 20.9 0.00 0.00 0.00 29 1019.7
20260503194723 20 280 6.4 16.1 0.00 0.00 0.00 32 1019.7
20260503194039 20 225 4.8 16.1 0.00 0.00 0.00 30 1019.7
20260503193613 20 230 4.8 19.3 0.00 0.00 0.00 32 1019.7
20260503192933 20 321 11.3 19.3 0.00 0.00 0.00 29 1020.0
20260503191149 19 314 12.9 22.5 0.00 0.00 0.00 28 1020.4
20260503190510 19 326 11.3 24.1 0.00 0.00 0.00 29 1020.4